Location: Drocourt
(49.0571°N, 1.7669°E)
Time: 13:38:10
(UTC+00:00)

SR - Pass Details

Date: 13 April 2024
Orbit: 579 x 859 km, 66.7° (Epoch: 28 May)

Event Time Altitude Azimuth Distance (km) Brightness Sun altitude
Rises 09:22:12 0° 325° (NW) 3,118 ? 39.3°
Reaches altitude 10° 09:25:42 10° 350° (N) 2,129 ? 39.7°
Maximum altitude 09:28:20 14° 23° (NNE) 1,800 ? 40.0°
Drops below altitude 10° 09:30:51 10° 56° (ENE) 2,035 ? 40.4°
Sets 09:34:04 0° 82° (E) 2,889 ? 40.8°
